Retour au catalogue

STARLINK-34446

ActifCommunicationsVLEO
NORAD 65495·PAYLOAD·🇺🇸 United States

Lancé Sep 5, 2025 depuis Cape Canaveral Space Force Station

Loading…

Prochains Passages (prochaines 24 heures)

TLE

FraisSource: CelesTrak SupGP

Époque: Sep 14, 2026, 14:39 UTC

1 65495C 25198D   26257.61090278  .00023927  00000+0  70626-3 0  2572
2 65495  53.1568 111.4500 0001008 120.2686 230.9082 15.34407877    16

Suivez STARLINK-34446 en temps réel avec AllMySat

Download on the App Store